This is the latest recevied weather packets stored in our database for station/object K8RRT. If no packets are shown the sender has not sent any weather packets the latest 10 day(s).
| Time | Temp. | Humidity | Pressure | Rain* | Wind** | Luminosity | Snow |
|---|---|---|---|---|---|---|---|
| 1777849300 | 16.11° C | 38% | 1011.2 hPa | 0 mm | - | 50 W/m² | - |
| 1777848997 | 16.67° C | 37% | 1011.3 hPa | 0 mm | - | 89 W/m² | - |
| 1777848696 | 16.67° C | 38% | 1011.2 hPa | 0 mm | - | 85 W/m² | - |
| 1777848394 | 17.22° C | 36% | 1011.1 hPa | 0 mm | - | 120 W/m² | - |
| 1777848092 | 17.22° C | 37% | 1011.4 hPa | 0 mm | - | 155 W/m² | - |
| 1777847790 | 17.22° C | 36% | 1011.4 hPa | 0 mm | - | 193 W/m² | - |
| 1777847486 | 17.22° C | 36% | 1011.5 hPa | 0 mm | - | 181 W/m² | - |
| 1777847183 | 17.22° C | 38% | 1011.5 hPa | 0 mm | - | 170 W/m² | - |
| 1777846881 | 16.67° C | 36% | 1011.4 hPa | 0 mm | - | 173 W/m² | - |
| 1777846579 | 17.22° C | 36% | 1011.3 hPa | 0 mm | - | 98 W/m² | - |
| 1777846276 | 17.78° C | 36% | 1011.5 hPa | 0 mm | - | 225 W/m² | - |
| 1777845973 | 17.78° C | 38% | 1011.6 hPa | 0 mm | - | 279 W/m² | - |
| 1777845670 | 17.22° C | 38% | 1011.4 hPa | 0 mm | - | 319 W/m² | - |
| 1777845367 | 17.78° C | 36% | 1011.5 hPa | 0 mm | - | 212 W/m² | - |
| 1777845063 | 17.78° C | 37% | 1011.4 hPa | 0 mm | - | 332 W/m² | - |
| 1777844762 | 17.78° C | 38% | 1011.5 hPa | 0 mm | - | 366 W/m² | - |
| 1777844458 | 17.78° C | 36% | 1011.6 hPa | 0 mm | - | 389 W/m² | - |
| 1777844157 | 17.78° C | 38% | 1011.6 hPa | 0 mm | - | 423 W/m² | - |
| 1777843853 | 17.78° C | 37% | 1011.8 hPa | 0 mm | - | 457 W/m² | - |
| 1777843550 | 17.78° C | 34% | 1011.8 hPa | 0 mm | - | 439 W/m² | - |
| 1777843247 | 17.22° C | 38% | 1011.6 hPa | 0 mm | - | 439 W/m² | - |
| 1777842945 | 17.22° C | 36% | 1011.6 hPa | 0 mm | - | 440 W/m² | - |
| 1777842640 | 17.22° C | 35% | 1011.7 hPa | 0 mm | - | 441 W/m² | - |
| 1777842337 | 17.22° C | 38% | 1011.7 hPa | 0 mm | - | 359 W/m² | - |
| 1777842033 | 16.67° C | 39% | 1011.9 hPa | 0 mm | - | 448 W/m² | - |
* Rain latest hour (hover to see other rain measurements)
** Current wind speed in m/s (hover to see current wind gust speed)